Location: Artiguedieu
(43.5000°N, 0.5454°E)
Time: 13:23:59
(UTC+00:00)

A-11 Canister half - All Passes

Search period start: 04 August 2021 00:00
Search period end: 14 August 2021 00:00
Orbit: 1513 x 1687 km, 47.2° (Epoch: 04 August)

Date Brightness Start Highest point End Pass type
(mag) Time Alt. Az. Time Alt. Az. Time Alt. Az.
04 Aug - 00:25:56 10° W 00:32:30 20° SW 00:39:04 10° SSW visible
04 Aug - 13:40:24 10° SSE 13:46:44 20° SE 13:53:13 10° E daylight
04 Aug - 15:40:44 10° SW 15:50:09 62° SE 15:59:57 10° ENE daylight
04 Aug - 17:45:19 10° W 17:55:10 77° NNW 18:05:22 10° ENE daylight
04 Aug - 19:50:55 10° WNW 20:00:58 77° NNE 20:11:13 10° E visible
04 Aug - 21:56:10 10° WNW 22:06:05 63° SW 22:16:03 10° SE visible
05 Aug - 00:02:43 10° W 00:09:40 21° SW 00:16:37 10° S visible
05 Aug - 13:18:01 10° SSE 13:23:56 18° SE 13:29:57 10° E daylight
05 Aug - 15:17:55 10° SW 15:27:15 59° SE 15:36:58 10° ENE daylight
05 Aug - 17:22:21 10° W 17:32:11 78° NNW 17:42:22 10° ENE daylight
05 Aug - 19:27:57 10° WNW 19:37:58 76° N 19:48:12 10° E visible
05 Aug - 21:33:12 10° WNW 21:43:09 65° SW 21:53:10 10° SE visible
05 Aug - 23:39:32 10° W 23:46:49 23° SW 23:54:08 10° S visible
06 Aug - 12:55:43 10° SSE 13:01:08 17° ESE 13:06:39 10° E daylight
06 Aug - 14:55:07 10° SW 15:04:21 56° SE 15:13:58 10° ENE daylight
06 Aug - 16:59:24 10° WSW 17:09:12 80° NNW 17:19:22 10° ENE daylight
06 Aug - 19:05:00 10° WNW 19:14:59 75° N 19:25:12 10° E daylight
06 Aug - 21:10:15 10° WNW 21:20:13 68° SSW 21:30:17 10° SE visible
06 Aug - 23:16:24 10° W 23:23:59 25° SW 23:31:35 10° S visible
07 Aug - 12:33:29 10° SSE 12:38:21 15° ESE 12:43:16 10° E daylight
07 Aug - 14:32:20 10° SW 14:41:28 53° SE 14:50:59 10° ENE daylight
07 Aug - 16:36:28 10° WSW 16:46:14 81° NNW 16:56:22 10° ENE daylight
07 Aug - 18:42:02 10° WNW 18:51:59 74° N 19:02:11 10° E daylight
07 Aug - 20:47:17 10° WNW 20:57:16 71° SSW 21:07:23 10° SE visible
07 Aug - 22:53:17 10° WNW 23:01:08 27° SW 23:09:01 10° S visible
08 Aug - 12:11:22 10° SSE 12:15:33 14° ESE 12:19:47 10° E daylight
08 Aug - 14:09:33 10° SSW 14:18:36 50° SE 14:27:59 10° ENE daylight
08 Aug - 16:13:32 10° WSW 16:23:16 83° NNW 16:33:22 10° ENE daylight
08 Aug - 18:19:04 10° WNW 18:28:59 74° N 18:39:10 10° E daylight
08 Aug - 20:24:20 10° WNW 20:34:20 73° SSW 20:44:28 10° SE visible
08 Aug - 22:30:11 10° WNW 22:38:16 28° SW 22:46:25 10° S visible
09 Aug - 11:49:26 10° SE 11:52:46 12° ESE 11:56:06 10° E daylight
09 Aug - 13:46:48 10° SSW 13:55:44 48° SE 14:04:58 10° ENE daylight
09 Aug - 15:50:36 10° WSW 16:00:18 85° NNW 16:10:23 10° ENE daylight
09 Aug - 17:56:08 10° W 18:06:00 73° N 18:16:10 10° E daylight
09 Aug - 20:01:24 10° WNW 20:11:23 76° SSW 20:21:33 10° SE visible
09 Aug - 22:07:07 10° WNW 22:15:25 30° SW 22:23:47 10° S visible
10 Aug - 11:27:57 10° SE 11:29:59 11° ESE 11:32:02 10° ESE daylight
10 Aug - 13:24:03 10° SSW 13:32:51 45° SE 13:41:58 10° ENE daylight
10 Aug - 15:27:41 10° WSW 15:37:20 87° NNW 15:47:24 10° ENE daylight
10 Aug - 17:33:10 10° W 17:43:00 72° N 17:53:09 10° E daylight
10 Aug - 19:38:28 10° WNW 19:48:26 79° SSW 19:58:37 10° SE visible
10 Aug - 21:44:04 10° WNW 21:52:33 32° SW 22:01:07 10° S visible
11 Aug - 13:01:20 10° SSW 13:10:00 43° SE 13:18:57 10° ENE daylight
11 Aug - 15:04:46 10° WSW 15:14:23 89° NNW 15:24:25 10° ENE daylight
11 Aug - 17:10:13 10° W 17:20:00 72° N 17:30:08 10° E daylight
11 Aug - 19:15:31 10° WNW 19:25:29 81° SSW 19:35:41 10° ESE visible
11 Aug - 21:21:02 10° WNW 21:29:41 34° SW 21:38:27 10° SSE visible
12 Aug - 12:38:38 10° SSW 12:47:08 40° SE 12:55:56 10° ENE daylight
12 Aug - 14:41:51 10° WSW 14:51:26 89° SSE 15:01:26 10° ENE daylight
12 Aug - 16:47:15 10° W 16:57:00 72° N 17:07:07 10° E daylight
12 Aug - 18:52:34 10° WNW 19:02:32 84° SSW 19:12:44 10° ESE daylight
12 Aug - 20:58:00 10° WNW 21:06:49 36° SW 21:15:44 10° SSE visible
13 Aug - 12:15:57 10° SSW 12:24:18 38° SE 12:32:55 10° ENE daylight
13 Aug - 14:18:57 10° WSW 14:28:30 87° SSE 14:38:28 10° ENE daylight
13 Aug - 16:24:18 10° W 16:34:01 72° N 16:44:05 10° E daylight
13 Aug - 18:29:39 10° WNW 18:39:35 86° SSW 18:49:46 10° ESE daylight
13 Aug - 20:35:01 10° WNW 20:43:56 39° SW 20:53:00 10° SSE visible
